Location: Axtheid
(49.6213°N, 11.8205°E)
Time: 12:52:43
(UTC+00:00)

Aureole 1 - Pass Details

Date: 24 January 2021
Orbit: 387 x 1563 km, 74.0° (Epoch: 25 February)

Event Time Altitude Azimuth Distance (km) Brightness Sun altitude
Rises 16:48:16 0° 339° (NNW) 2,338 8.1 -8.7°
Reaches altitude 10° 16:50:20 10° 344° (NNW) 1,437 6.9 -9.0°
Maximum altitude 16:53:19 57° 64° (ENE) 468 4.1 -9.5°
Drops below altitude 10° 16:56:24 10° 145° (SE) 1,482 6.8 -9.9°
Sets 16:58:33 0° 149° (SSE) 2,422 8.0 -10.3°
